Station Historical Data
Daily Summary for August 3, 2017 Units:  English    Metric   Both
« Previous Day
Next Day »
Daily Weekly Monthly Yearly Custom
  High: Low: Average:
Temperature: 93.1 °F 77.1 °F 82.9 °F
Dew Point: 61.8 °F 44.3 °F 53.6 °F
Humidity: 53 % 22 % 38 %
Wind Speed: 17.0 mph 0.0 mph 3.2 mph
Wind Gust: 22.0 mph - -
Wind:- - SSE
Pressure: 29.92 in 29.87 in -
Precipitation: 0.00 in    
Historical Graphs
 
 
Tabular Data for August 3, 2017
Time Temperature Dew Point Pressure Wind Wind Speed Wind Gust Humidity Rainfall Rate (Hourly) solar
00:02 78.0 °F 54.3 °F 29.89 in SE 4.0 mph 11.0 mph 44 % 0.00 in 0.00 W/m2
00:07 78.0 °F 54.3 °F 29.89 in SE 4.0 mph 8.0 mph 44 % 0.00 in 0.00 W/m2
00:12 77.9 °F 54.3 °F 29.89 in SE 2.0 mph 12.0 mph 44 % 0.00 in 0.00 W/m2
00:17 77.9 °F 53.6 °F 29.89 in SE 5.0 mph 11.0 mph 43 % 0.00 in 0.00 W/m2
00:22 77.8 °F 53.5 °F 29.88 in SE 9.0 mph 12.0 mph 43 % 0.00 in 0.00 W/m2
00:27 77.8 °F 53.5 °F 29.88 in SE 2.0 mph 13.0 mph 43 % 0.00 in 0.00 W/m2
00:32 77.8 °F 54.2 °F 29.88 in Calm   14.0 mph 44 % 0.00 in 0.00 W/m2
00:37 77.8 °F 54.2 °F 29.88 in Calm   9.0 mph 44 % 0.00 in 0.00 W/m2
00:42 77.8 °F 54.2 °F 29.88 in Calm   12.0 mph 44 % 0.00 in 0.00 W/m2
00:47 77.8 °F 54.2 °F 29.89 in Calm   12.0 mph 44 % 0.00 in 0.00 W/m2
00:52 77.8 °F 54.2 °F 29.89 in ESE 7.0 mph 12.0 mph 44 % 0.00 in 0.00 W/m2
00:57 77.8 °F 54.2 °F 29.89 in ESE 1.0 mph 8.0 mph 44 % 0.00 in 0.00 W/m2
01:02 77.7 °F 54.1 °F 29.89 in ESE 7.0 mph 7.0 mph 44 % 0.00 in 0.00 W/m2
01:07 77.7 °F 54.7 °F 29.89 in ESE 4.0 mph 11.0 mph 45 % 0.00 in 0.00 W/m2
01:12 77.7 °F 54.7 °F 29.89 in ESE 1.0 mph 9.0 mph 45 % 0.00 in 0.00 W/m2
01:17 77.6 °F 54.6 °F 29.89 in ESE 4.0 mph 11.0 mph 45 % 0.00 in 0.00 W/m2
01:22 77.5 °F 55.1 °F 29.89 in East 4.0 mph 14.0 mph 46 % 0.00 in 0.00 W/m2
01:27 77.4 °F 55.0 °F 29.89 in ESE 4.0 mph 9.0 mph 46 % 0.00 in 0.00 W/m2
01:29 77.4 °F 55.0 °F 29.88 in ESE 5.0 mph 9.0 mph 46 % 0.00 in 0.00 W/m2
01:34 77.3 °F 54.9 °F 29.89 in ESE 7.0 mph 12.0 mph 46 % 0.00 in 0.00 W/m2
01:36 77.3 °F 54.9 °F 29.89 in ESE 2.0 mph 15.0 mph 46 % 0.00 in 0.00 W/m2
01:41 77.2 °F 54.8 °F 29.88 in ESE 1.0 mph 16.0 mph 46 % 0.00 in 0.00 W/m2
01:46 77.2 °F 54.8 °F 29.89 in ESE 6.0 mph 12.0 mph 46 % 0.00 in 0.00 W/m2
01:51 77.2 °F 54.8 °F 29.89 in ESE 6.0 mph 13.0 mph 46 % 0.00 in 0.00 W/m2
01:56 77.2 °F 54.8 °F 29.89 in Calm   13.0 mph 46 % 0.00 in 0.00 W/m2
02:01 77.2 °F 55.4 °F 29.89 in ESE 4.0 mph 14.0 mph 47 % 0.00 in 0.00 W/m2
02:06 77.3 °F 55.5 °F 29.88 in ESE 4.0 mph 12.0 mph 47 % 0.00 in 0.00 W/m2
02:11 77.2 °F 54.8 °F 29.88 in ESE 2.0 mph 14.0 mph 46 % 0.00 in 0.00 W/m2
02:16 77.2 °F 54.8 °F 29.88 in ESE 6.0 mph 13.0 mph 46 % 0.00 in 0.00 W/m2
02:21 77.2 °F 54.8 °F 29.88 in Calm   2.0 mph 46 % 0.00 in 0.00 W/m2
02:26 77.2 °F 55.4 °F 29.88 in ESE 11.0 mph 11.0 mph 47 % 0.00 in 0.00 W/m2
02:31 77.2 °F 55.4 °F 29.88 in East 2.0 mph 4.0 mph 47 % 0.00 in 0.00 W/m2
02:36 77.2 °F 54.8 °F 29.88 in ESE 4.0 mph 7.0 mph 46 % 0.00 in 0.00 W/m2
02:41 77.3 °F 55.5 °F 29.88 in ESE 5.0 mph 13.0 mph 47 % 0.00 in 0.00 W/m2
02:46 77.3 °F 55.5 °F 29.88 in ESE 1.0 mph 4.0 mph 47 % 0.00 in 0.00 W/m2
02:51 77.4 °F 55.0 °F 29.88 in East 1.0 mph 1.0 mph 46 % 0.00 in 0.00 W/m2
02:56 77.4 °F 55.0 °F 29.88 in ESE 6.0 mph 8.0 mph 46 % 0.00 in 0.00 W/m2
03:01 77.5 °F 55.1 °F 29.88 in ESE 2.0 mph 6.0 mph 46 % 0.00 in 0.00 W/m2
03:06 77.5 °F 55.1 °F 29.88 in East 8.0 mph 16.0 mph 46 % 0.00 in 0.00 W/m2
03:11 77.6 °F 55.2 °F 29.88 in ESE 6.0 mph 13.0 mph 46 % 0.00 in 0.00 W/m2
03:16 77.7 °F 55.3 °F 29.88 in ESE 12.0 mph 13.0 mph 46 % 0.00 in 0.00 W/m2
03:21 77.8 °F 55.4 °F 29.88 in Calm   5.0 mph 46 % 0.00 in 0.00 W/m2
03:26 77.8 °F 55.4 °F 29.88 in East 13.0 mph 15.0 mph 46 % 0.00 in 0.00 W/m2
03:31 77.9 °F 55.5 °F 29.88 in ESE 4.0 mph 14.0 mph 46 % 0.00 in 0.00 W/m2
03:36 77.9 °F 55.5 °F 29.88 in ESE 11.0 mph 13.0 mph 46 % 0.00 in 0.00 W/m2
03:41 77.9 °F 55.5 °F 29.88 in ESE 6.0 mph 13.0 mph 46 % 0.00 in 0.00 W/m2
03:46 78.0 °F 55.6 °F 29.88 in Calm   9.0 mph 46 % 0.00 in 0.00 W/m2
03:51 78.0 °F 55.6 °F 29.88 in ESE 2.0 mph 12.0 mph 46 % 0.00 in 0.00 W/m2
03:56 78.0 °F 55.6 °F 29.87 in Calm   6.0 mph 46 % 0.00 in 0.00 W/m2
04:01 78.1 °F 55.7 °F 29.87 in East 1.0 mph 9.0 mph 46 % 0.00 in 0.00 W/m2
04:06 78.1 °F 55.7 °F 29.87 in ESE 6.0 mph 11.0 mph 46 % 0.00 in 0.00 W/m2
04:11 78.1 °F 55.7 °F 29.87 in East 6.0 mph 11.0 mph 46 % 0.00 in 0.00 W/m2
04:16 78.1 °F 55.7 °F 29.87 in Calm   7.0 mph 46 % 0.00 in 0.00 W/m2
04:21 78.1 °F 55.7 °F 29.87 in ESE 4.0 mph 13.0 mph 46 % 0.00 in 0.00 W/m2
04:26 78.2 °F 55.8 °F 29.87 in ESE 1.0 mph 7.0 mph 46 % 0.00 in 0.00 W/m2
04:31 78.2 °F 55.8 °F 29.87 in Calm   8.0 mph 46 % 0.00 in 0.00 W/m2
04:36 78.1 °F 55.7 °F 29.87 in ESE 2.0 mph 6.0 mph 46 % 0.00 in 0.00 W/m2
04:41 78.1 °F 55.7 °F 29.87 in ESE 4.0 mph 11.0 mph 46 % 0.00 in 0.00 W/m2
04:46 78.1 °F 55.7 °F 29.87 in ESE 5.0 mph 12.0 mph 46 % 0.00 in 0.00 W/m2
04:51 78.0 °F 55.6 °F 29.87 in East 6.0 mph 6.0 mph 46 % 0.00 in 0.00 W/m2
04:56 78.0 °F 55.6 °F 29.87 in ESE 9.0 mph 12.0 mph 46 % 0.00 in 0.00 W/m2
05:01 78.0 °F 55.6 °F 29.87 in ESE 9.0 mph 11.0 mph 46 % 0.00 in 0.00 W/m2
05:06 78.0 °F 55.6 °F 29.87 in Calm   9.0 mph 46 % 0.00 in 0.00 W/m2
05:11 77.9 °F 55.5 °F 29.88 in East 9.0 mph 11.0 mph 46 % 0.00 in 0.00 W/m2
05:17 77.9 °F 55.5 °F 29.88 in Calm   15.0 mph 46 % 0.00 in 0.00 W/m2
05:22 77.9 °F 55.5 °F 29.88 in ESE 4.0 mph 9.0 mph 46 % 0.00 in 0.00 W/m2
05:27 77.9 °F 55.5 °F 29.88 in East 6.0 mph 9.0 mph 46 % 0.00 in 0.00 W/m2
05:32 77.8 °F 55.4 °F 29.88 in East 4.0 mph 13.0 mph 46 % 0.00 in 0.00 W/m2
05:37 77.8 °F 55.4 °F 29.88 in ESE 8.0 mph 11.0 mph 46 % 0.00 in 0.00 W/m2
05:42 77.7 °F 55.3 °F 29.88 in ESE 2.0 mph 9.0 mph 46 % 0.00 in 0.00 W/m2
05:47 77.7 °F 55.3 °F 29.88 in East 9.0 mph 13.0 mph 46 % 0.00 in 0.00 W/m2
05:52 77.7 °F 55.3 °F 29.88 in East 7.0 mph 12.0 mph 46 % 0.00 in 0.00 W/m2
05:57 77.6 °F 55.2 °F 29.88 in East 1.0 mph 11.0 mph 46 % 0.00 in 0.00 W/m2
06:02 77.6 °F 55.2 °F 29.88 in East 5.0 mph 9.0 mph 46 % 0.00 in 0.00 W/m2
06:07 77.5 °F 55.7 °F 29.89 in ESE 5.0 mph 8.0 mph 47 % 0.00 in 5.00 W/m2
06:12 77.5 °F 55.7 °F 29.89 in ESE 1.0 mph 11.0 mph 47 % 0.00 in 7.00 W/m2
06:17 77.4 °F 55.6 °F 29.89 in ESE 8.0 mph 12.0 mph 47 % 0.00 in 11.00 W/m2
06:22 77.3 °F 55.5 °F 29.89 in Calm   11.0 mph 47 % 0.00 in 16.00 W/m2
06:27 77.3 °F 55.5 °F 29.89 in East 2.0 mph 8.0 mph 47 % 0.00 in 21.00 W/m2
06:32 77.2 °F 55.4 °F 29.89 in ESE 2.0 mph 11.0 mph 47 % 0.00 in 28.00 W/m2
06:37 77.1 °F 55.3 °F 29.89 in ESE 5.0 mph 9.0 mph 47 % 0.00 in 39.00 W/m2
06:42 77.1 °F 55.3 °F 29.89 in East 8.0 mph 9.0 mph 47 % 0.00 in 54.00 W/m2
06:47 77.1 °F 55.9 °F 29.89 in ESE 5.0 mph 15.0 mph 48 % 0.00 in 70.00 W/m2
06:52 77.1 °F 55.9 °F 29.89 in ESE 1.0 mph 14.0 mph 48 % 0.00 in 83.00 W/m2
06:57 77.1 °F 55.9 °F 29.89 in ESE 2.0 mph 8.0 mph 48 % 0.00 in 102.00 W/m2
07:02 77.1 °F 56.5 °F 29.89 in East 5.0 mph 11.0 mph 49 % 0.00 in 125.00 W/m2
07:07 77.2 °F 56.6 °F 29.89 in ESE 12.0 mph 14.0 mph 49 % 0.00 in 144.00 W/m2
07:12 77.3 °F 56.7 °F 29.89 in Calm   13.0 mph 49 % 0.00 in 163.00 W/m2
07:17 77.4 °F 56.8 °F 29.89 in ESE 7.0 mph 7.0 mph 49 % 0.00 in 185.00 W/m2
07:22 77.5 °F 57.4 °F 29.89 in ESE 7.0 mph 13.0 mph 50 % 0.00 in 185.00 W/m2
07:27 77.5 °F 57.4 °F 29.89 in East 1.0 mph 14.0 mph 50 % 0.00 in 200.00 W/m2
07:32 77.6 °F 57.5 °F 29.89 in East 1.0 mph 9.0 mph 50 % 0.00 in 158.00 W/m2
07:37 77.7 °F 57.6 °F 29.89 in East 8.0 mph 9.0 mph 50 % 0.00 in 190.00 W/m2
07:42 77.8 °F 57.7 °F 29.89 in ESE 11.0 mph 11.0 mph 50 % 0.00 in 202.00 W/m2
07:47 77.8 °F 58.2 °F 29.89 in Calm   11.0 mph 51 % 0.00 in 264.00 W/m2
07:52 77.9 °F 57.8 °F 29.90 in East 5.0 mph 14.0 mph 50 % 0.00 in 236.00 W/m2
07:57 77.9 °F 57.8 °F 29.90 in East 7.0 mph 12.0 mph 50 % 0.00 in 195.00 W/m2
08:02 77.9 °F 57.8 °F 29.90 in Calm   12.0 mph 50 % 0.00 in 294.00 W/m2
08:07 78.0 °F 57.9 °F 29.90 in Calm   8.0 mph 50 % 0.00 in 339.00 W/m2
08:12 78.1 °F 57.4 °F 29.90 in Calm   11.0 mph 49 % 0.00 in 348.00 W/m2
08:17 78.2 °F 57.5 °F 29.90 in Calm   8.0 mph 49 % 0.00 in 366.00 W/m2
08:22 78.4 °F 58.2 °F 29.90 in ESE 8.0 mph 11.0 mph 50 % 0.00 in 380.00 W/m2
08:27 78.5 °F 58.3 °F 29.89 in Calm   6.0 mph 50 % 0.00 in 404.00 W/m2
08:32 78.7 °F 58.5 °F 29.89 in ESE 5.0 mph 9.0 mph 50 % 0.00 in 396.00 W/m2
08:33 78.7 °F 58.5 °F 29.90 in ESE 11.0 mph 14.0 mph 50 % 0.00 in 396.00 W/m2
08:38 78.9 °F 58.7 °F 29.89 in Calm   12.0 mph 50 % 0.00 in 432.00 W/m2
08:43 79.1 °F 58.9 °F 29.89 in Calm   9.0 mph 50 % 0.00 in 443.00 W/m2
08:48 79.2 °F 58.4 °F 29.90 in Calm   7.0 mph 49 % 0.00 in 413.00 W/m2
08:53 79.4 °F 58.6 °F 29.90 in ESE 5.0 mph 7.0 mph 49 % 0.00 in 246.00 W/m2
08:58 79.7 °F 59.4 °F 29.90 in Calm   4.0 mph 50 % 0.00 in 531.00 W/m2
09:03 79.9 °F 59.6 °F 29.90 in ESE 1.0 mph 8.0 mph 50 % 0.00 in 225.00 W/m2
09:08 80.1 °F 60.4 °F 29.90 in Calm   7.0 mph 51 % 0.00 in 522.00 W/m2
09:13 80.2 °F 61.0 °F 29.90 in Calm     52 % 0.00 in 517.00 W/m2
09:18 80.3 °F 61.6 °F 29.89 in Calm   2.0 mph 53 % 0.00 in 519.00 W/m2
09:23 80.5 °F 61.8 °F 29.90 in Calm   2.0 mph 53 % 0.00 in 503.00 W/m2
09:28 80.5 °F 61.8 °F 29.90 in Calm   1.0 mph 53 % 0.00 in 504.00 W/m2
09:33 80.6 °F 61.4 °F 29.90 in ESE 1.0 mph 5.0 mph 52 % 0.00 in 547.00 W/m2
09:38 80.8 °F 60.4 °F 29.90 in Calm   1.0 mph 50 % 0.00 in 559.00 W/m2
09:43 80.9 °F 58.8 °F 29.90 in Calm   6.0 mph 47 % 0.00 in 575.00 W/m2
09:48 81.1 °F 58.4 °F 29.90 in Calm   2.0 mph 46 % 0.00 in 585.00 W/m2
09:53 81.4 °F 58.7 °F 29.90 in ESE 1.0 mph 4.0 mph 46 % 0.00 in 596.00 W/m2
09:58 81.7 °F 60.1 °F 29.90 in Calm   6.0 mph 48 % 0.00 in 596.00 W/m2
10:03 81.9 °F 59.1 °F 29.90 in Calm     46 % 0.00 in 619.00 W/m2
10:08 82.0 °F 59.8 °F 29.90 in Calm     47 % 0.00 in 633.00 W/m2
10:13 82.3 °F 58.9 °F 29.90 in ESE 1.0 mph 2.0 mph 45 % 0.00 in 640.00 W/m2
10:18 82.6 °F 59.8 °F 29.90 in Calm     46 % 0.00 in 659.00 W/m2
10:23 82.9 °F 59.4 °F 29.90 in ESE 4.0 mph 5.0 mph 45 % 0.00 in 649.00 W/m2
10:28 83.2 °F 59.7 °F 29.90 in Calm   4.0 mph 45 % 0.00 in 691.00 W/m2
10:30 83.3 °F 59.8 °F 29.90 in Calm   5.0 mph 45 % 0.00 in 696.00 W/m2
10:35 83.6 °F 57.4 °F 29.90 in Calm   5.0 mph 41 % 0.00 in 707.00 W/m2
10:40 83.8 °F 58.9 °F 29.90 in Calm   1.0 mph 43 % 0.00 in 666.00 W/m2
10:45 84.1 °F 57.9 °F 29.90 in ESE 1.0 mph 6.0 mph 41 % 0.00 in 717.00 W/m2
10:50 84.5 °F 59.6 °F 29.90 in SSE 1.0 mph 7.0 mph 43 % 0.00 in 696.00 W/m2
10:55 84.7 °F 60.4 °F 29.90 in Calm   6.0 mph 44 % 0.00 in 740.00 W/m2
11:00 85.0 °F 60.0 °F 29.90 in SSE 2.0 mph 5.0 mph 43 % 0.00 in 745.00 W/m2
11:05 85.2 °F 60.8 °F 29.90 in Calm   7.0 mph 44 % 0.00 in 754.00 W/m2
11:10 85.4 °F 59.7 °F 29.90 in SSE 4.0 mph 4.0 mph 42 % 0.00 in 766.00 W/m2
11:15 85.6 °F 59.2 °F 29.90 in Calm   5.0 mph 41 % 0.00 in 773.00 W/m2
11:20 85.7 °F 59.3 °F 29.90 in Calm   4.0 mph 41 % 0.00 in 782.00 W/m2
11:25 85.9 °F 60.8 °F 29.90 in Calm   6.0 mph 43 % 0.00 in 784.00 W/m2
11:30 86.2 °F 59.1 °F 29.90 in Calm   5.0 mph 40 % 0.00 in 795.00 W/m2
11:31 86.2 °F 59.1 °F 29.90 in Calm     40 % 0.00 in 796.00 W/m2
11:36 86.5 °F 57.2 °F 29.90 in South 4.0 mph 7.0 mph 37 % 0.00 in 798.00 W/m2
11:41 86.6 °F 57.2 °F 29.90 in Calm   5.0 mph 37 % 0.00 in 809.00 W/m2
11:46 86.9 °F 56.8 °F 29.90 in SW 4.0 mph 6.0 mph 36 % 0.00 in 816.00 W/m2
11:51 87.0 °F 54.5 °F 29.90 in Calm   4.0 mph 33 % 0.00 in 824.00 W/m2
11:52 87.1 °F 54.5 °F 29.90 in WSW 3.0 mph 7.0 mph 33 % 0.00 in 826.00 W/m2
11:57 87.3 °F 53.9 °F 29.90 in Calm   3.0 mph 32 % 0.00 in 831.00 W/m2
12:02 87.6 °F 55.0 °F 29.90 in Calm     33 % 0.00 in 837.00 W/m2
12:07 87.9 °F 53.5 °F 29.90 in Calm     31 % 0.00 in 849.00 W/m2
12:12 88.4 °F 53.1 °F 29.90 in WSW 1.0 mph 5.0 mph 30 % 0.00 in 851.00 W/m2
12:17 88.7 °F 52.4 °F 29.90 in Calm   4.0 mph 29 % 0.00 in 814.00 W/m2
12:22 88.9 °F 53.5 °F 29.90 in Calm   6.0 mph 30 % 0.00 in 870.00 W/m2
12:27 89.2 °F 50.9 °F 29.90 in WSW 3.0 mph 7.0 mph 27 % 0.00 in 875.00 W/m2
12:32 89.4 °F 50.0 °F 29.90 in Calm   7.0 mph 26 % 0.00 in 879.00 W/m2
12:37 89.8 °F 51.4 °F 29.90 in Calm   4.0 mph 27 % 0.00 in 872.00 W/m2
12:42 90.0 °F 51.6 °F 29.90 in Calm   1.0 mph 27 % 0.00 in 889.00 W/m2
12:47 90.1 °F 51.7 °F 29.90 in WSW 7.0 mph 8.0 mph 27 % 0.00 in 835.00 W/m2
12:52 90.4 °F 50.9 °F 29.90 in Calm   3.0 mph 26 % 0.00 in 851.00 W/m2
12:57 90.6 °F 52.1 °F 29.90 in Calm   3.0 mph 27 % 0.00 in 744.00 W/m2
13:02 90.7 °F 51.1 °F 29.90 in Calm   4.0 mph 26 % 0.00 in 849.00 W/m2
13:07 90.7 °F 52.2 °F 29.90 in Calm   2.0 mph 27 % 0.00 in 853.00 W/m2
13:12 90.8 °F 53.2 °F 29.90 in Calm     28 % 0.00 in 877.00 W/m2
13:17 91.1 °F 51.5 °F 29.90 in WSW 2.0 mph 6.0 mph 26 % 0.00 in 868.00 W/m2
13:22 91.6 °F 51.9 °F 29.90 in West 3.0 mph 7.0 mph 26 % 0.00 in 858.00 W/m2
13:27 91.7 °F 52.0 °F 29.90 in Calm   1.0 mph 26 % 0.00 in 870.00 W/m2
13:32 91.8 °F 51.0 °F 29.89 in Calm     25 % 0.00 in 856.00 W/m2
13:37 92.1 °F 47.8 °F 29.90 in Calm   1.0 mph 22 % 0.00 in 867.00 W/m2
13:42 92.4 °F 49.3 °F 29.89 in West 1.0 mph 3.0 mph 23 % 0.00 in 807.00 W/m2
13:47 92.3 °F 49.2 °F 29.89 in Calm     23 % 0.00 in 846.00 W/m2
13:52 91.9 °F 51.1 °F 29.89 in Calm   3.0 mph 25 % 0.00 in 823.00 W/m2
13:57 91.8 °F 52.1 °F 29.89 in Calm   2.0 mph 26 % 0.00 in 823.00 W/m2
14:02 91.8 °F 51.0 °F 29.89 in Calm   5.0 mph 25 % 0.00 in 842.00 W/m2
14:07 92.0 °F 53.3 °F 29.89 in SW 2.0 mph 8.0 mph 27 % 0.00 in 835.00 W/m2
14:12 92.2 °F 51.3 °F 29.89 in Calm   5.0 mph 25 % 0.00 in 838.00 W/m2
14:17 92.4 °F 51.5 °F 29.89 in SSW 3.0 mph 10.0 mph 25 % 0.00 in 840.00 W/m2
14:22 92.8 °F 50.7 °F 29.89 in SW 4.0 mph 7.0 mph 24 % 0.00 in 786.00 W/m2
14:23 92.9 °F 50.8 °F 29.89 in SW 2.0 mph 7.0 mph 24 % 0.00 in 789.00 W/m2
14:28 93.1 °F 51.0 °F 29.89 in Calm   6.0 mph 24 % 0.00 in 705.00 W/m2
14:30 93.0 °F 50.9 °F 29.89 in Calm   6.0 mph 24 % 0.00 in 775.00 W/m2
14:35 92.9 °F 49.7 °F 29.89 in Calm   5.0 mph 23 % 0.00 in 844.00 W/m2
14:40 92.7 °F 50.7 °F 29.88 in Calm   5.0 mph 24 % 0.00 in 831.00 W/m2
14:45 92.6 °F 51.7 °F 29.89 in Calm   9.0 mph 25 % 0.00 in 819.00 W/m2
14:50 92.6 °F 49.4 °F 29.88 in WSW 2.0 mph 2.0 mph 23 % 0.00 in 752.00 W/m2
14:55 92.7 °F 50.7 °F 29.88 in WSW 3.0 mph 8.0 mph 24 % 0.00 in 737.00 W/m2
15:00 92.8 °F 50.7 °F 29.88 in WSW 1.0 mph 7.0 mph 24 % 0.00 in 768.00 W/m2
15:05 92.8 °F 49.6 °F 29.88 in SW 7.0 mph 12.0 mph 23 % 0.00 in 737.00 W/m2
15:10 92.7 °F 51.8 °F 29.88 in Calm   8.0 mph 25 % 0.00 in 434.00 W/m2
15:15 92.3 °F 51.4 °F 29.88 in SW 2.0 mph 3.0 mph 25 % 0.00 in 752.00 W/m2
15:20 92.0 °F 52.2 °F 29.88 in West 6.0 mph 13.0 mph 26 % 0.00 in 552.00 W/m2
15:25 91.6 °F 49.7 °F 29.88 in Calm   12.0 mph 24 % 0.00 in 657.00 W/m2
15:30 91.4 °F 49.6 °F 29.88 in Calm   10.0 mph 24 % 0.00 in 682.00 W/m2
15:35 91.3 °F 52.7 °F 29.88 in SW 3.0 mph 9.0 mph 27 % 0.00 in 722.00 W/m2
15:40 91.2 °F 51.6 °F 29.88 in Calm   12.0 mph 26 % 0.00 in 726.00 W/m2
15:45 91.2 °F 50.5 °F 29.87 in Calm   9.0 mph 25 % 0.00 in 751.00 W/m2
15:50 91.3 °F 49.5 °F 29.87 in SW 3.0 mph 10.0 mph 24 % 0.00 in 749.00 W/m2
15:55 91.5 °F 49.7 °F 29.87 in SW 4.0 mph 8.0 mph 24 % 0.00 in 754.00 W/m2
16:00 91.6 °F 48.6 °F 29.87 in Calm   8.0 mph 23 % 0.00 in 722.00 W/m2
16:05 91.6 °F 48.6 °F 29.87 in Calm   7.0 mph 23 % 0.00 in 621.00 W/m2
16:10 91.3 °F 47.2 °F 29.87 in WSW 2.0 mph 7.0 mph 22 % 0.00 in 541.00 W/m2
16:15 91.0 °F 48.1 °F 29.87 in Calm   5.0 mph 23 % 0.00 in 378.00 W/m2
16:20 90.8 °F 50.2 °F 29.87 in WSW 3.0 mph 8.0 mph 25 % 0.00 in 278.00 W/m2
16:25 90.4 °F 50.9 °F 29.88 in Calm   8.0 mph 26 % 0.00 in 313.00 W/m2
16:30 90.2 °F 50.7 °F 29.88 in SW 3.0 mph 8.0 mph 26 % 0.00 in 327.00 W/m2
16:31 90.2 °F 50.7 °F 29.88 in SW 6.0 mph 8.0 mph 26 % 0.00 in 327.00 W/m2
16:36 89.9 °F 51.5 °F 29.88 in SW 1.0 mph 8.0 mph 27 % 0.00 in 425.00 W/m2
16:41 89.6 °F 52.2 °F 29.88 in Calm   8.0 mph 28 % 0.00 in 403.00 W/m2
16:46 89.4 °F 52.0 °F 29.88 in Calm   5.0 mph 28 % 0.00 in 478.00 W/m2
16:51 89.2 °F 52.8 °F 29.88 in SW 5.0 mph 8.0 mph 29 % 0.00 in 522.00 W/m2
16:56 89.2 °F 52.8 °F 29.88 in South 5.0 mph 10.0 mph 29 % 0.00 in 422.00 W/m2
17:01 89.2 °F 49.9 °F 29.88 in SSW 9.0 mph 9.0 mph 26 % 0.00 in 413.00 W/m2
17:06 89.3 °F 51.0 °F 29.88 in Calm     27 % 0.00 in 485.00 W/m2
17:11 89.4 °F 51.0 °F 29.88 in SSW 6.0 mph 6.0 mph 27 % 0.00 in 483.00 W/m2
17:16 89.4 °F 52.0 °F 29.88 in Calm   1.0 mph 28 % 0.00 in 462.00 W/m2
17:21 89.4 °F 51.0 °F 29.88 in SW 1.0 mph 1.0 mph 27 % 0.00 in 438.00 W/m2
17:26 89.4 °F 52.0 °F 29.88 in Calm     28 % 0.00 in 432.00 W/m2
17:31 89.4 °F 53.9 °F 29.88 in Calm     30 % 0.00 in 251.00 W/m2
17:36 89.3 °F 55.6 °F 29.88 in SSW 1.0 mph 1.0 mph 32 % 0.00 in 309.00 W/m2
17:41 89.0 °F 55.3 °F 29.88 in Calm     32 % 0.00 in 401.00 W/m2
17:46 88.7 °F 55.9 °F 29.88 in SSW 2.0 mph 3.0 mph 33 % 0.00 in 406.00 W/m2
17:51 88.4 °F 56.5 °F 29.88 in SSW 6.0 mph 6.0 mph 34 % 0.00 in 362.00 W/m2
17:56 88.1 °F 55.4 °F 29.88 in SW 3.0 mph 4.0 mph 33 % 0.00 in 374.00 W/m2
18:01 88.0 °F 53.6 °F 29.88 in SSW 1.0 mph 1.0 mph 31 % 0.00 in 327.00 W/m2
18:06 87.9 °F 55.2 °F 29.88 in SSW 3.0 mph 4.0 mph 33 % 0.00 in 287.00 W/m2
18:11 87.9 °F 55.2 °F 29.88 in SSW 6.0 mph 8.0 mph 33 % 0.00 in 290.00 W/m2
18:16 87.8 °F 56.0 °F 29.88 in SSW 2.0 mph 2.0 mph 34 % 0.00 in 297.00 W/m2
18:21 87.7 °F 55.9 °F 29.88 in SSW 5.0 mph 6.0 mph 34 % 0.00 in 281.00 W/m2
18:26 87.6 °F 54.1 °F 29.89 in Calm   2.0 mph 32 % 0.00 in 207.00 W/m2
18:31 87.5 °F 52.3 °F 29.89 in South 6.0 mph 9.0 mph 30 % 0.00 in 202.00 W/m2
18:36 87.5 °F 54.9 °F 29.89 in Calm   4.0 mph 33 % 0.00 in 227.00 W/m2
18:41 87.4 °F 54.8 °F 29.89 in Calm   1.0 mph 33 % 0.00 in 221.00 W/m2
18:46 87.2 °F 55.4 °F 29.89 in South 3.0 mph 6.0 mph 34 % 0.00 in 199.00 W/m2
18:51 87.0 °F 55.3 °F 29.89 in South 8.0 mph 9.0 mph 34 % 0.00 in 155.00 W/m2
18:57 86.8 °F 53.4 °F 29.89 in South 7.0 mph 7.0 mph 32 % 0.00 in 155.00 W/m2
19:02 86.7 °F 53.3 °F 29.89 in South 1.0 mph 6.0 mph 32 % 0.00 in 118.00 W/m2
19:07 86.5 °F 53.2 °F 29.89 in SSE 2.0 mph 7.0 mph 32 % 0.00 in 111.00 W/m2
19:12 86.4 °F 52.2 °F 29.89 in SSE 1.0 mph 6.0 mph 31 % 0.00 in 111.00 W/m2
19:17 86.3 °F 52.1 °F 29.89 in SSE 4.0 mph 8.0 mph 31 % 0.00 in 98.00 W/m2
19:22 86.2 °F 53.8 °F 29.89 in South 4.0 mph 4.0 mph 33 % 0.00 in 84.00 W/m2
19:27 86.1 °F 53.7 °F 29.89 in Calm   11.0 mph 33 % 0.00 in 72.00 W/m2
19:32 85.9 °F 54.3 °F 29.89 in South 2.0 mph 6.0 mph 34 % 0.00 in 56.00 W/m2
19:37 85.6 °F 54.0 °F 29.89 in Calm   10.0 mph 34 % 0.00 in 44.00 W/m2
19:42 85.3 °F 54.6 °F 29.89 in South 8.0 mph 8.0 mph 35 % 0.00 in 33.00 W/m2
19:47 85.1 °F 55.2 °F 29.89 in South 5.0 mph 8.0 mph 36 % 0.00 in 23.00 W/m2
19:52 84.9 °F 55.0 °F 29.89 in Calm   8.0 mph 36 % 0.00 in 16.00 W/m2
19:57 84.7 °F 54.8 °F 29.89 in Calm   6.0 mph 36 % 0.00 in 11.00 W/m2
20:02 84.6 °F 54.7 °F 29.89 in South 2.0 mph 9.0 mph 36 % 0.00 in 7.00 W/m2
20:07 84.3 °F 54.5 °F 29.89 in South 7.0 mph 13.0 mph 36 % 0.00 in 5.00 W/m2
20:14 84.0 °F 54.2 °F 29.89 in Calm   9.0 mph 36 % 0.00 in 0.00 W/m2
20:19 83.8 °F 54.0 °F 29.89 in South 6.0 mph 6.0 mph 36 % 0.00 in 0.00 W/m2
20:21 83.7 °F 53.9 °F 29.89 in South 4.0 mph 8.0 mph 36 % 0.00 in 0.00 W/m2
20:26 83.4 °F 53.7 °F 29.90 in Calm   8.0 mph 36 % 0.00 in 0.00 W/m2
20:27 83.4 °F 52.9 °F 29.90 in South 6.0 mph 9.0 mph 35 % 0.00 in 0.00 W/m2
20:32 83.0 °F 52.6 °F 29.89 in Calm   9.0 mph 35 % 0.00 in 0.00 W/m2
20:37 82.8 °F 52.4 °F 29.89 in South 5.0 mph 6.0 mph 35 % 0.00 in 0.00 W/m2
20:42 82.5 °F 49.7 °F 29.89 in South 9.0 mph 11.0 mph 32 % 0.00 in 0.00 W/m2
20:47 82.3 °F 48.7 °F 29.88 in South 8.0 mph 11.0 mph 31 % 0.00 in 0.00 W/m2
20:52 82.1 °F 48.5 °F 29.88 in South 8.0 mph 11.0 mph 31 % 0.00 in 0.00 W/m2
20:58 81.9 °F 47.5 °F 29.88 in South 10.0 mph 14.0 mph 30 % 0.00 in 0.00 W/m2
21:03 81.6 °F 47.2 °F 29.88 in SSE 7.0 mph 12.0 mph 30 % 0.00 in 0.00 W/m2
21:08 81.3 °F 46.0 °F 29.88 in South 9.0 mph 13.0 mph 29 % 0.00 in 0.00 W/m2
21:13 81.0 °F 45.8 °F 29.88 in SSE 1.0 mph 11.0 mph 29 % 0.00 in 0.00 W/m2
21:18 80.7 °F 44.6 °F 29.88 in South 5.0 mph 14.0 mph 28 % 0.00 in 0.00 W/m2
21:23 80.5 °F 44.4 °F 29.89 in SSE 7.0 mph 12.0 mph 28 % 0.00 in 0.00 W/m2
21:28 80.3 °F 44.3 °F 29.90 in SE 17.0 mph 18.0 mph 28 % 0.00 in 0.00 W/m2
21:33 80.1 °F 45.0 °F 29.91 in SSE 11.0 mph 15.0 mph 29 % 0.00 in 0.00 W/m2
21:38 79.9 °F 44.8 °F 29.91 in South 10.0 mph 22.0 mph 29 % 0.00 in 0.00 W/m2
21:43 79.8 °F 44.8 °F 29.91 in South 11.0 mph 15.0 mph 29 % 0.00 in 0.00 W/m2
21:48 79.7 °F 44.7 °F 29.91 in South 6.0 mph 15.0 mph 29 % 0.00 in 0.00 W/m2
21:53 79.6 °F 44.6 °F 29.91 in South 10.0 mph 18.0 mph 29 % 0.00 in 0.00 W/m2
21:58 79.4 °F 44.4 °F 29.91 in SSE 9.0 mph 16.0 mph 29 % 0.00 in 0.00 W/m2
22:03 79.3 °F 44.3 °F 29.91 in SSE 6.0 mph 10.0 mph 29 % 0.00 in 0.00 W/m2
22:08 79.3 °F 45.2 °F 29.91 in SSE 2.0 mph 10.0 mph 30 % 0.00 in 0.00 W/m2
22:13 79.2 °F 45.1 °F 29.91 in SE 6.0 mph 11.0 mph 30 % 0.00 in 0.00 W/m2
22:18 79.1 °F 45.0 °F 29.91 in SE 6.0 mph 11.0 mph 30 % 0.00 in 0.00 W/m2
22:23 79.0 °F 45.8 °F 29.91 in SE 4.0 mph 12.0 mph 31 % 0.00 in 0.00 W/m2
22:28 78.9 °F 44.9 °F 29.91 in SE 7.0 mph 16.0 mph 30 % 0.00 in 0.00 W/m2
22:33 78.8 °F 44.8 °F 29.92 in SSE 8.0 mph 11.0 mph 30 % 0.00 in 0.00 W/m2
22:38 78.7 °F 45.6 °F 29.91 in SE 2.0 mph 14.0 mph 31 % 0.00 in 0.00 W/m2
22:43 78.6 °F 45.5 °F 29.91 in SE 4.0 mph 12.0 mph 31 % 0.00 in 0.00 W/m2
22:48 78.5 °F 44.5 °F 29.91 in SE 7.0 mph 11.0 mph 30 % 0.00 in 0.00 W/m2
22:53 78.5 °F 45.4 °F 29.91 in SE 8.0 mph 11.0 mph 31 % 0.00 in 0.00 W/m2
22:58 78.4 °F 45.3 °F 29.91 in SE 1.0 mph 8.0 mph 31 % 0.00 in 0.00 W/m2
23:03 78.4 °F 45.3 °F 29.90 in SE 4.0 mph 8.0 mph 31 % 0.00 in 0.00 W/m2
23:08 78.3 °F 45.2 °F 29.90 in ESE 5.0 mph 11.0 mph 31 % 0.00 in 0.00 W/m2
23:13 78.2 °F 46.0 °F 29.90 in ESE 7.0 mph 11.0 mph 32 % 0.00 in 0.00 W/m2
23:18 78.2 °F 46.0 °F 29.90 in East 6.0 mph 12.0 mph 32 % 0.00 in 0.00 W/m2
23:23 78.0 °F 46.6 °F 29.90 in ESE 2.0 mph 15.0 mph 33 % 0.00 in 0.00 W/m2
23:28 77.9 °F 46.5 °F 29.90 in ESE 7.0 mph 14.0 mph 33 % 0.00 in 0.00 W/m2
23:33 77.8 °F 48.0 °F 29.90 in East 11.0 mph 15.0 mph 35 % 0.00 in 0.00 W/m2
23:38 77.6 °F 48.6 °F 29.90 in ESE 12.0 mph 15.0 mph 36 % 0.00 in 0.00 W/m2
23:43 77.6 °F 48.6 °F 29.90 in ESE 8.0 mph 14.0 mph 36 % 0.00 in 0.00 W/m2
23:49 77.5 °F 49.2 °F 29.90 in ESE 9.0 mph 14.0 mph 37 % 0.00 in 0.00 W/m2
23:54 77.5 °F 49.9 °F 29.90 in ESE 5.0 mph 12.0 mph 38 % 0.00 in 0.00 W/m2
23:59 77.5 °F 50.6 °F 29.90 in ESE 6.0 mph 14.0 mph 39 % 0.00 in 0.00 W/m2
Juneau County Weather
Compliments of Weather Underground - 4.5 mb
 WU-history PHP script courtesy of   Juneau County Weather.
powered by Cumulus v1.9.3 (1059)
Ambient Weather VWS v14.00
Top Contact Website Map Copyright © 2007 - 2018 Foresthillweather.com Never base important decisions on this or any weather information obtained from the Internet